Flag for Ecuador Weather past 2 weeks in Guayaquil, Ecuador

Now
88 °F

Scattered clouds.


Feels Like: 96 °F
Forecast: 76 / 91 °F
Wind: 3 mph from Southeast

Location: Guayaquil / Simon Bolivar

Current Time: Apr 19, 2015 at 11:28:26 AM

Latest Report: Apr 19, 2015 at 11:00 AM


Visibility: N/A

Pressure: 29.86 "Hg

Humidity: 62%

Dew point: 73 °F

Location of GuayaquilLocation

Historic Weather in Guayaquil — Graph

°F

Guayaquil temperature yesterday

Maximum temperature yesterday: 86 °F (at 3:00 PM)
Minimum temperature yesterday: 79 °F (at 12:00 AM)
Average temperature yesterday: 82 °F

Past Weeks' High & Low Weather Summary

 TemperatureHumidityPressure
High90 °F (Apr 6, 1:00 PM)100% (Apr 14, 6:00 AM)29.95 "Hg (Apr 14, 6:00 AM)
Low75 °F (Apr 4, 9:00 PM)55% (Apr 6, 1:00 PM)29.65 "Hg (Apr 4, 4:00 PM)
Average82 °F78%29.79 "Hg
* Reported Apr 4 8:00 AM — Apr 19 8:00 AM, Guayaquil, Weather by CustomWeather, © 2015

Note: Actual official high and low records may vary slightly from our data, if they occured in-between our weather recording intervals... More about our weather records

Advertising

Guayaquil weather history for previous 24 hours

 ConditionsComfort  
Time TempWeatherWind HumidityBarometerVisibility
8:00 AM
Sun, Apr 19
82 °FPassing clouds.2 mph79%29.83 "HgN/A
7:00 AM77 °FScattered clouds.2 mph94%29.80 "HgN/A
6:00 AM79 °FPassing clouds.7 mph89%29.80 "HgN/A
5:00 AM79 °FWarm.N/A84%29.77 "HgN/A
4:00 AM79 °FPassing clouds.7 mph84%29.77 "HgN/A
3:00 AM77 °FPassing clouds.7 mph89%29.80 "HgN/A
2:00 AM77 °FPassing clouds.8 mph89%29.80 "HgN/A
1:00 AM77 °FPassing clouds.7 mph89%29.83 "HgN/A
11:00 PM
Sat, Apr 18
79 °FPassing clouds.8 mph84%29.83 "HgN/A
10:00 PM81 °FPassing clouds.7 mph79%29.83 "HgN/A
9:00 PM81 °FPassing clouds.10 mph74%29.80 "HgN/A
8:00 PM82 °FPassing clouds.10 mph74%29.80 "HgN/A
7:00 PM82 °FPassing clouds.13 mph79%29.77 "HgN/A
6:00 PM84 °FPartly sunny.6 mph74%29.74 "HgN/A
5:00 PM86 °FPartly sunny.7 mph66%29.74 "HgN/A
3:00 PM86 °FBroken clouds.2 mph66%29.77 "HgN/A
2:00 PM84 °FBroken clouds.2 mph66%29.80 "HgN/A
1:00 PM84 °FMore clouds than sun.7 mph74%29.83 "HgN/A
12:00 PM84 °FBroken clouds.8 mph79%29.83 "HgN/A
11:00 AM82 °FBroken clouds.7 mph84%29.86 "HgN/A
Weather by CustomWeather, © 2015

See weather overviewHow to use our weather pages